Regional Weather Roundup
Issued by NWS Raleigh/Durham, NC

Home | Current Version | Previous Version | Text Only | Print | Product List | Glossary On
Versions: 1 2 3 4 5 6 7 8 9 10 11 12 13 14 15 16 17 18 19 20 21 22 23 24 25 26 27 28 29 30 31 32 33 34 35 36 37 38 39 40 41 42 43 44 45 46 47 48 49 50
000
ASUS42 KRAH 300510
RWRRAH
NORTH CAROLINA WEATHER ROUNDUP
NATIONAL WEATHER SERVICE RALEIGH NC
100 AM EDT SAT AUG 30 2014

NOTE: "FAIR" INDICATES FEW OR NO CLOUDS BELOW 12,000 FEET WITH NO
SIGNIFICANT WEATHER AND/OR OBSTRUCTIONS TO VISIBILITY.

NCZ001-053-055-056-065-067-300600-
WESTERN NORTH CAROLINA

CITY           SKY/WX    TMP DP  RH WIND       PRES   REMARKS
ASHEVILLE      PTCLDY    70  67  90 SW3       30.25R
JEFFERSON      CLOUDY    67  65  94 SE5       30.30R FOG
HICKORY        NOT AVBL
RUTHERFORDTON  CLOUDY    74  71  89 CALM      30.20R
MOUNT AIRY     CLOUDY    73  69  88 E3        30.23R
BOONE          NOT AVBL
$$

NCZ021-022-025-041-071-084-088-300600-
CENTRAL NORTH CAROLINA

CITY           SKY/WX    TMP DP  RH WIND       PRES   REMARKS
CHARLOTTE      PTCLDY    77  71  82 SE8       30.18R
GREENSBORO     CLOUDY    75  71  87 SE9       30.19R
WINSTON-SALEM  CLOUDY    73  69  87 E5        30.20S
RALEIGH-DURHAM MOCLDY    75  69  81 E5        30.18F
FORT BRAGG     MOCLDY    76  72  87 SE1       30.16S
FAYETTEVILLE   PTCLDY    77  70  79 CALM      30.16S
BURLINGTON     CLOUDY    73  69  87 NE3       30.18S
LAURINBURG     CLEAR     74  69  85 CALM      30.17R
$$

NCZ011-015-027-028-043-044-047-080-103-300600-
NORTHEASTERN NORTH CAROLINA

CITY           SKY/WX    TMP DP  RH WIND       PRES   REMARKS
ROCKY MT-WILSO CLOUDY    72  67  84 NE3       30.19S
GREENVILLE     PTCLDY    72  68  88 CALM      30.20S
WASHINGTON     CLEAR     70  67  90 CALM      30.20R
ELIZABETH CITY CLOUDY    74  65  73 E6        30.20S
MANTEO         PTCLDY    74  67  77 E9        30.20R
CAPE HATTERAS  CLEAR     77  75  93 E8        30.17R
$$

NCZ078-087-090-091-093-098-101-300600-
SOUTHEASTERN NORTH CAROLINA

CITY           SKY/WX    TMP DP  RH WIND       PRES   REMARKS
LUMBERTON      CLEAR     74  70  87 CALM      30.15S
GOLDSBORO      CLEAR     73  72  98 E5        30.16S
KINSTON        PTCLDY    73  70  88 E5        30.19S
KENANSVILLE    CLEAR     74  72  93 CALM      30.18S
NEW BERN       CLEAR     75  70  84 CALM      30.19S
CHERRY POINT   PTCLDY    76  73  91 CALM      30.19R
BEAUFORT       CLEAR     76  74  93 CALM      30.18R
JACKSONVILLE   PTCLDY    77  73  87 NE3       30.17R
WILMINGTON     CLEAR     72  71  97 CALM      30.16S
$$



USA.gov is the U.S. government's official web portal to all federal, state and local government web resources and services.